TDRS 8

Last updated on Oct. 21, 2020, 5:57 a.m. UTC

1 26388U 00034A   20294.83365194 -.00000239  00000-0  00000+0 0  9994
2 26388   9.4240  46.6668 0013020 319.9402  52.3472  1.00265968 74469
UTC
Height (km)
Latitude
Longitude
Inclination
Orbital Period
UTC large
Height (km)
Speed (km/s)
/
Latitude / Longitude
Inclination (degrees)
Orbital Period (minutes)
Azimuth
Elevation
Range (km)
Doppler Factor
iOS Compass Heading
iOS Angle

Next 30 passes for location: Hong Kong

Rise time Rise Azimuth (degrees) Set time Set Azimuth (degrees) Duration Max altitude (degrees)

No matching passes for this satellites